Home   Weather   Lexington   Past weeks

Flag for USA Past Weather in Lexington, North Carolina, USA — Yesterday and Last 2 Weeks

44 °F


Feels Like: 44 °F
Forecast: 47 / 75 °F
Wind: No wind

Location: Davidson County Airport

Current Time: Oct 24, 2016 at 6:48:11 AM

Latest Report: Oct 24, 2016 at 6:05 AM

Visibility: 10 mi

Pressure: 30.13 "Hg

Humidity: 94%

Dew Point: 43 °F

Location of LexingtonLocation

Past Weather in Lexington — Graph


Lexington Temperature Yesterday

Maximum temperature yesterday: 71 °F (at 3:45 PM)
Minimum temperature yesterday: 36 °F (at 4:45 AM)
Average temperature yesterday: 52 °F

High & Low Weather Summary for the Past Weeks

High86 °F (Oct 19, 3:45 PM)100% (Oct 10, 6:45 AM)30.45 "Hg (Oct 10, 6:45 AM)
Low36 °F (Oct 23, 4:45 AM)31% (Oct 9, 3:45 PM)29.71 "Hg (Oct 21, 2:25 PM)
Average60 °F76%30.14 "Hg
* Reported Oct 9 5:05 AM — Oct 24 5:25 AM, Lexington, Weather by CustomWeather, © 2016

Note: Actual official high and low records may vary slightly from our data, if they occured in-between our weather recording intervals... More about our weather records


Lexington Weather History for the Previous 24 Hours

Scroll right to see more
Time TempWeatherWind HumidityBarometerVisibility
5:25 AM
Mon, Oct 24
43 °FClear.No wind98%30.13 "Hg10 mi
5:05 AM44 °FClear.No wind97%30.13 "Hg10 mi
4:45 AM43 °FClear.No wind98%30.13 "Hg10 mi
4:25 AM44 °FClear.No wind97%30.13 "Hg10 mi
4:05 AM45 °FClear.No wind93%30.13 "Hg10 mi
3:45 AM44 °FClear.No wind94%30.13 "Hg10 mi
3:25 AM44 °FClear.No wind96%30.13 "Hg10 mi
3:05 AM45 °FClear.No wind95%30.13 "Hg10 mi
2:45 AM44 °FClear.No wind96%30.13 "Hg10 mi
2:25 AM46 °FClear.No wind89%30.13 "Hg10 mi
2:05 AM46 °FClear.No wind89%30.13 "Hg10 mi
1:45 AM47 °FClear.No wind88%30.13 "Hg10 mi
1:25 AM48 °FClear.No wind87%30.14 "Hg10 mi
1:05 AM48 °FClear.No wind83%30.14 "Hg10 mi
12:45 AM48 °FClear.No wind85%30.14 "Hg10 mi
12:25 AM50 °FClear.No wind80%30.14 "Hg10 mi
12:05 AM50 °FClear.No wind82%30.15 "Hg10 mi
11:45 PM
Sun, Oct 23
49 °FClear.No wind84%30.15 "Hg10 mi
11:25 PM50 °FClear.No wind85%30.15 "Hg10 mi
11:05 PM50 °FClear.No wind83%30.15 "Hg10 mi
10:45 PM51 °FClear.No wind80%30.15 "Hg10 mi
10:25 PM53 °FClear.No wind74%30.15 "Hg10 mi
10:05 PM53 °FClear.No wind74%30.15 "Hg10 mi
9:45 PM54 °FClear.No wind71%30.15 "Hg10 mi
9:25 PM52 °FClear.No wind76%30.15 "Hg10 mi
9:05 PM52 °FClear.No wind75%30.15 "Hg10 mi
8:45 PM52 °FClear.No wind72%30.15 "Hg10 mi
8:05 PM55 °FClear.No wind67%30.15 "Hg10 mi
7:25 PM59 °FClear.No wind54%30.14 "Hg10 mi
7:05 PM61 °FClear.No wind50%30.14 "Hg10 mi
6:45 PM62 °FClear.No wind49%30.14 "Hg10 mi
6:05 PM65 °FSunny.3 mph44%30.14 "Hg10 mi
5:45 PM66 °FSunny.6 mph41%30.14 "Hg10 mi
5:25 PM68 °FSunny.6 mph38%30.14 "Hg10 mi
5:05 PM69 °FSunny.6 mph37%30.14 "Hg10 mi
4:45 PM69 °FSunny.5 mph37%30.14 "Hg10 mi
4:05 PM70 °FSunny.7 mph34%30.14 "Hg10 mi
3:45 PM71 °FSunny.3 mph34%30.14 "Hg10 mi
3:25 PM69 °FSunny.6 mph33%30.15 "Hg10 mi
3:05 PM69 °FSunny.5 mph35%30.15 "Hg10 mi
2:45 PM68 °FSunny.6 mph34%30.16 "Hg10 mi
2:05 PM67 °FSunny.7 mph36%30.17 "Hg10 mi
1:45 PM67 °FSunny.6 mph36%30.18 "Hg10 mi
1:25 PM66 °FSunny.No wind38%30.19 "Hg10 mi
1:05 PM65 °FSunny.7 mph39%30.20 "Hg10 mi
12:45 PM65 °FSunny.3 mph38%30.21 "Hg10 mi
12:25 PM65 °FSunny.3 mph41%30.22 "Hg10 mi
12:05 PM64 °FSunny.3 mph38%30.22 "Hg10 mi
11:45 AM62 °FSunny.No wind40%30.23 "Hg10 mi
11:25 AM61 °FSunny.3 mph40%30.23 "Hg10 mi
11:05 AM60 °FSunny.No wind42%30.23 "Hg10 mi
10:45 AM58 °FSunny.No wind43%30.24 "Hg10 mi
10:25 AM57 °FSunny.5 mph49%30.24 "Hg10 mi
10:05 AM54 °FSunny.3 mph56%30.24 "Hg10 mi
9:45 AM52 °FSunny.No wind63%30.24 "Hg10 mi
9:25 AM50 °FSunny.No wind66%30.24 "Hg10 mi
9:05 AM47 °FSunny.No wind74%30.23 "Hg10 mi
8:45 AM45 °FSunny.No wind78%30.22 "Hg10 mi
8:25 AM42 °FSunny.No wind85%30.21 "Hg10 mi
8:05 AM40 °FSunny.No wind89%30.20 "Hg10 mi
7:45 AM40 °FSunny.No wind83%30.20 "Hg10 mi
7:25 AM37 °FClear.No wind94%30.18 "Hg10 mi
7:05 AM42 °FClear.No wind78%30.17 "Hg10 mi
6:45 AM39 °FClear.No wind87%30.16 "Hg10 mi
6:25 AM38 °FClear.No wind93%30.15 "Hg10 mi
6:05 AM39 °FClear.No wind91%30.14 "Hg10 mi
Weather by CustomWeather, © 2016

See weather overviewHow to use our weather pages